13-09-2023, 00:00:04,    350,    0.0,   11.0,   0.00,   0.00, 1015.7,    0.2, -999.0
13-09-2023, 00:00:13,    346,    0.3,   11.0,   0.00,   0.00, 1015.7,    0.1, -999.0
13-09-2023, 00:00:23,    337,    0.3,   10.9,   0.00,   0.00, 1015.7,    0.3, -999.0
13-09-2023, 00:00:34,    340,    1.5,   11.1,   0.00,   0.00, 1015.8,    0.2, -999.0
13-09-2023, 00:00:43,    326,    2.2,   11.3,   0.00,   0.00, 1015.8,    0.2, -999.0
13-09-2023, 00:00:53,     14,    1.7,   11.0,   0.00,   0.00, 1015.8,    0.2, -999.0
13-09-2023, 00:01:04,      0,    1.3,   11.2,   0.00,   0.00, 1015.8,    0.2, -999.0
13-09-2023, 00:01:14,      4,    2.0,   11.2,   0.00,   0.00, 1015.8,    0.2, -999.0
13-09-2023, 00:01:23,      0,    0.1,   11.1,   0.00,   0.00, 1015.7,    0.2, -999.0
13-09-2023, 00:01:33,      0,    0.0,   11.0,   0.00,   0.00, 1015.7,    0.2, -999.0
13-09-2023, 00:01:44,    320,    1.5,   11.1,   0.00,   0.00, 1015.8,    0.2, -999.0
13-09-2023, 00:01:53,    349,    1.1,   11.2,   0.00,   0.00, 1015.8,    0.3, -999.0
13-09-2023, 00:02:03,      0,    1.6,   11.2,   0.00,   0.00, 1015.8,    0.2, -999.0
13-09-2023, 00:02:13,      4,    1.7,   11.2,   0.00,   0.00, 1015.8,    0.2, -999.0
13-09-2023, 00:02:23,      4,    1.4,   11.1,   0.00,   0.00, 1015.8,    0.0, -999.0
13-09-2023, 00:02:33,      4,    0.4,   11.1,   0.00,   0.00, 1015.8,    0.3, -999.0
13-09-2023, 00:02:43,      4,    0.0,   11.1,   0.00,   0.00, 1015.7,    0.2, -999.0
13-09-2023, 00:02:53,      4,    0.0,   11.1,   0.00,   0.00, 1015.7,    0.2, -999.0
13-09-2023, 00:03:03,      4,    0.0,   11.0,   0.00,   0.00, 1015.7,    0.2, -999.0
13-09-2023, 00:03:13,      0,    0.6,   11.3,   0.00,   0.00, 1015.8,    0.3, -999.0
13-09-2023, 00:03:23,      0,    0.0,   11.1,   0.00,   0.00, 1015.7,    0.2, -999.0
13-09-2023, 00:03:33,      0,    0.1,   11.2,   0.00,   0.00, 1015.8,    0.3, -999.0
13-09-2023, 00:03:43,      1,    0.9,   11.2,   0.00,   0.00, 1015.8,    0.2, -999.0
13-09-2023, 00:03:53,      0,    0.6,   11.2,   0.00,   0.00, 1015.8,    0.2, -999.0
13-09-2023, 00:04:03,      0,    0.8,   11.1,   0.00,   0.00, 1015.8,    0.1, -999.0
13-09-2023, 00:04:13,      5,    1.4,   11.2,   0.00,   0.00, 1015.8,    0.3, -999.0
13-09-2023, 00:04:23,    333,    0.5,   11.2,   0.00,   0.00, 1015.8,    0.2, -999.0
13-09-2023, 00:04:33,    344,    1.4,   11.4,   0.00,   0.00, 1015.8,    0.2, -999.0
13-09-2023, 00:04:43,     20,    1.4,   11.2,   0.00,   0.00, 1015.8,    0.2, -999.0
13-09-2023, 00:04:53,    326,    0.8,   11.2,   0.00,   0.00, 1015.8,    0.3, -999.0
13-09-2023, 00:05:03,    332,    1.6,   11.2,   0.00,   0.00, 1015.8,    0.3, -999.0
13-09-2023, 00:05:13,    329,    0.1,   11.1,   0.00,   0.00, 1015.8,    0.2, -999.0
13-09-2023, 00:05:23,    328,    0.0,   11.1,   0.00,   0.00, 1015.7,    0.0, -999.0
13-09-2023, 00:05:33,    330,    0.0,   11.1,   0.00,   0.00, 1015.7,    0.1, -999.0
13-09-2023, 00:05:43,    330,    0.0,   11.1,   0.00,   0.00, 1015.7,    0.1, -999.0
13-09-2023, 00:05:53,    329,    0.0,   11.1,   0.00,   0.00, 1015.7,    0.4, -999.0
13-09-2023, 00:06:02,    329,    0.0,   11.2,   0.00,   0.00, 1015.7,    0.1, -999.0
13-09-2023, 00:06:13,    330,    0.0,   11.2,   0.00,   0.00, 1015.7,    0.2, -999.0
13-09-2023, 00:06:23,    329,    0.0,   11.2,   0.00,   0.00, 1015.7,    0.3, -999.0
13-09-2023, 00:06:32,    330,    0.0,   11.2,   0.00,   0.00, 1015.7,    0.3, -999.0
13-09-2023, 00:06:42,    329,    0.0,   11.2,   0.00,   0.00, 1015.6,    0.0, -999.0
13-09-2023, 00:06:53,    329,    0.0,   11.2,   0.00,   0.00, 1015.7,    0.6, -999.0
13-09-2023, 00:07:03,    330,    0.0,   11.2,   0.00,   0.00, 1015.7,    0.0, -999.0
13-09-2023, 00:07:12,    329,    0.0,   11.2,   0.00,   0.00, 1015.7,    0.3, -999.0
13-09-2023, 00:07:22,    330,    0.0,   11.2,   0.00,   0.00, 1015.7,    0.5, -999.0
13-09-2023, 00:07:33,    329,    0.0,   11.1,   0.00,   0.00, 1015.7,    0.0, -999.0
13-09-2023, 00:07:42,    330,    0.0,   11.1,   0.00,   0.00, 1015.7,    0.3, -999.0
13-09-2023, 00:07:52,    329,    0.1,   11.2,   0.00,   0.00, 1015.7,    0.3, -999.0
13-09-2023, 00:08:03,    329,    0.0,   11.2,   0.00,   0.00, 1015.7,    0.4, -999.0
13-09-2023, 00:08:12,    352,    0.0,   11.1,   0.00,   0.00, 1015.7,    0.4, -999.0
13-09-2023, 00:08:22,    352,    0.0,   11.2,   0.00,   0.00, 1015.7,    0.5, -999.0
13-09-2023, 00:08:32,    352,    0.0,   11.1,   0.00,   0.00, 1015.7,    0.2, -999.0
13-09-2023, 00:08:42,    352,    0.0,   11.1,   0.00,   0.00, 1015.7,    0.0, -999.0
13-09-2023, 00:08:52,    352,    0.0,   11.2,   0.00,   0.00, 1015.7,    0.0, -999.0
13-09-2023, 00:09:02,    351,    0.0,   11.2,   0.00,   0.00, 1015.7,    0.0, -999.0
13-09-2023, 00:09:12,    352,    0.0,   11.1,   0.00,   0.00, 1015.7,    0.2, -999.0
13-09-2023, 00:09:22,    352,    0.0,   11.1,   0.00,   0.00, 1015.7,    0.2, -999.0
13-09-2023, 00:09:32,    355,    0.2,   11.2,   0.00,   0.00, 1015.8,    0.1, -999.0
13-09-2023, 00:09:42,    354,    0.3,   11.3,   0.00,   0.00, 1015.8,    0.2, -999.0
13-09-2023, 00:09:52,    340,    0.4,   11.2,   0.00,   0.00, 1015.8,    0.2, -999.0
13-09-2023, 00:10:02,     10,    2.1,   11.3,   0.00,   0.00, 1015.8,    0.1, -999.0
13-09-2023, 00:10:12,      0,    0.9,   11.2,   0.00,   0.00, 1015.9,    0.2, -999.0
13-09-2023, 00:10:22,    329,    2.7,   11.3,   0.00,   0.00, 1015.8,    0.1, -999.0
13-09-2023, 00:10:32,    332,    0.9,   11.2,   0.00,   0.00, 1015.8,    0.3, -999.0
13-09-2023, 00:10:42,    337,    0.3,   11.2,   0.00,   0.00, 1015.8,    0.2, -999.0
13-09-2023, 00:10:52,    337,    0.0,   11.1,   0.00,   0.00, 1015.7,    0.3, -999.0
13-09-2023, 00:11:02,    353,    0.5,   11.2,   0.00,   0.00, 1015.8,    0.4, -999.0
13-09-2023, 00:11:12,    353,    0.4,   11.2,   0.00,   0.00, 1015.9,    0.2, -999.0
13-09-2023, 00:11:22,    354,    0.1,   11.1,   0.00,   0.00, 1015.8,    0.3, -999.0
13-09-2023, 00:11:32,    340,    2.0,   11.2,   0.00,   0.00, 1015.9,    0.4, -999.0
13-09-2023, 00:11:42,    335,    1.9,   11.2,   0.00,   0.00, 1015.9,    0.2, -999.0
13-09-2023, 00:11:51,    334,    0.7,   11.1,   0.00,   0.00, 1015.9,    0.2, -999.0
13-09-2023, 00:12:02,    335,    0.5,   11.2,   0.00,   0.00, 1015.9,    0.2, -999.0
13-09-2023, 00:12:12,    334,    0.1,   11.2,   0.00,   0.00, 1015.8,    0.2, -999.0
13-09-2023, 00:12:22,    334,    0.6,   11.2,   0.00,   0.00, 1015.8,    0.3, -999.0
13-09-2023, 00:12:32,    334,    0.2,   11.1,   0.00,   0.00, 1015.8,    0.2, -999.0
13-09-2023, 00:12:42,    334,    0.0,   11.1,   0.00,   0.00, 1015.8,    0.4, -999.0
13-09-2023, 00:12:52,    334,    0.0,   11.1,   0.00,   0.00, 1015.7,    0.3, -999.0
13-09-2023, 00:13:01,    334,    0.0,   11.1,   0.00,   0.00, 1015.8,    0.1, -999.0
13-09-2023, 00:13:12,      0,    0.4,   11.2,   0.00,   0.00, 1015.9,    0.3, -999.0
13-09-2023, 00:13:22,      0,    0.0,   11.1,   0.00,   0.00, 1015.8,    0.3, -999.0
13-09-2023, 00:13:31,      0,    0.1,   11.1,   0.00,   0.00, 1015.8,    0.1, -999.0
13-09-2023, 00:13:41,      0,    0.1,   11.2,   0.00,   0.00, 1015.8,    0.4, -999.0
13-09-2023, 00:13:52,      0,    0.0,   11.1,   0.00,   0.00, 1015.7,    0.0, -999.0
13-09-2023, 00:14:01,    346,    0.6,   11.2,   0.00,   0.00, 1015.8,    0.3, -999.0
13-09-2023, 00:14:11,    347,    0.3,   11.2,   0.00,   0.00, 1015.8,    0.3, -999.0
13-09-2023, 00:14:21,    335,    0.9,   11.2,   0.00,   0.00, 1015.9,    0.3, -999.0
13-09-2023, 00:14:32,    335,    0.6,   11.2,   0.00,   0.00, 1015.8,    0.1, -999.0
13-09-2023, 00:14:41,    335,    0.9,   11.2,   0.00,   0.00, 1015.9,    0.4, -999.0
13-09-2023, 00:14:51,    334,    0.2,   11.1,   0.00,   0.00, 1015.8,    0.1, -999.0
13-09-2023, 00:15:01,    335,    0.0,   11.0,   0.00,   0.00, 1015.7,    0.3, -999.0
13-09-2023, 00:15:11,      0,    0.8,   11.2,   0.00,   0.00, 1015.8,    0.2, -999.0
13-09-2023, 00:15:21,      0,    0.1,   11.1,   0.00,   0.00, 1015.8,    0.2, -999.0
13-09-2023, 00:15:31,      0,    0.1,   11.1,   0.00,   0.00, 1015.8,    0.2, -999.0
13-09-2023, 00:15:41,      0,    0.2,   11.1,   0.00,   0.00, 1015.8,    0.1, -999.0
13-09-2023, 00:15:51,      0,    0.0,   11.1,   0.00,   0.00, 1015.8,    0.0, -999.0
13-09-2023, 00:16:01,      0,    0.0,   11.1,   0.00,   0.00, 1015.8,    0.3, -999.0
13-09-2023, 00:16:11,      0,    0.0,   11.2,   0.00,   0.00, 1015.8,    0.0, -999.0
13-09-2023, 00:16:21,      0,    0.0,   11.2,   0.00,   0.00, 1015.8,    0.2, -999.0
13-09-2023, 00:16:31,      0,    0.6,   11.2,   0.00,   0.00, 1015.9,    0.2, -999.0
13-09-2023, 00:16:41,      0,    0.3,   11.2,   0.00,   0.00, 1015.9,    0.3, -999.0
13-09-2023, 00:16:51,      0,    0.0,   11.2,   0.00,   0.00, 1015.8,    0.0, -999.0
13-09-2023, 00:17:01,      0,    0.2,   11.2,   0.00,   0.00, 1015.9,    0.2, -999.0
13-09-2023, 00:17:11,      0,    0.6,   11.2,   0.00,   0.00, 1015.9,    0.2, -999.0
13-09-2023, 00:17:21,      0,    0.8,   11.3,   0.00,   0.00, 1015.9,    0.3, -999.0
13-09-2023, 00:17:31,    331,    1.0,   11.2,   0.00,   0.00, 1015.9,    0.3, -999.0
13-09-2023, 00:17:41,    331,    3.1,   11.2,   0.00,   0.00, 1015.9,    0.1, -999.0
13-09-2023, 00:17:51,    358,    1.1,   11.3,   0.00,   0.00, 1015.9,    0.3, -999.0
13-09-2023, 00:18:01,    358,    0.1,   11.1,   0.00,   0.00, 1015.8,    0.1, -999.0
13-09-2023, 00:18:11,    358,    0.0,   11.2,   0.00,   0.00, 1015.8,    0.2, -999.0
13-09-2023, 00:18:21,    358,    0.0,   11.2,   0.00,   0.00, 1015.8,    0.2, -999.0
13-09-2023, 00:18:31,    355,    0.0,   11.2,   0.00,   0.00, 1015.8,    0.1, -999.0
13-09-2023, 00:18:41,    355,    0.2,   11.2,   0.00,   0.00, 1015.9,    0.2, -999.0
13-09-2023, 00:18:50,    355,    0.0,   11.1,   0.00,   0.00, 1015.8,    0.2, -999.0
13-09-2023, 00:19:01,    355,    0.0,   11.2,   0.00,   0.00, 1015.8,    0.1, -999.0
13-09-2023, 00:19:11,    353,    0.1,   11.1,   0.00,   0.00, 1015.8,    0.2, -999.0
13-09-2023, 00:19:20,    348,    0.1,   11.2,   0.00,   0.00, 1015.9,    0.3, -999.0
13-09-2023, 00:19:30,    348,    0.0,   11.2,   0.00,   0.00, 1015.9,    0.2, -999.0
13-09-2023, 00:19:41,    348,    0.0,   11.1,   0.00,   0.00, 1015.8,    0.1, -999.0
13-09-2023, 00:19:51,    348,    0.0,   11.2,   0.00,   0.00, 1015.8,    0.3, -999.0
13-09-2023, 00:20:00,    348,    0.3,   11.2,   0.00,   0.00, 1015.8,    0.1, -999.0
13-09-2023, 00:20:10,    348,    0.2,   11.2,   0.00,   0.00, 1015.8,    0.2, -999.0
13-09-2023, 00:20:21,    348,    0.0,   11.2,   0.00,   0.00, 1015.8,    0.3, -999.0
13-09-2023, 00:20:30,    348,    0.0,   11.2,   0.00,   0.00, 1015.8,    0.1, -999.0
13-09-2023, 00:20:40,    348,    0.0,   11.2,   0.00,   0.00, 1015.8,    0.3, -999.0
13-09-2023, 00:20:50,    346,    1.2,   11.2,   0.00,   0.00, 1015.9,    0.2, -999.0
13-09-2023, 00:21:01,    346,    0.5,   11.2,   0.00,   0.00, 1015.9,    0.3, -999.0
13-09-2023, 00:21:10,    357,    1.0,   11.2,   0.00,   0.00, 1015.9,    0.2, -999.0
13-09-2023, 00:21:20,    330,    0.9,   11.2,   0.00,   0.00, 1015.9,    0.3, -999.0
13-09-2023, 00:21:30,    330,    0.2,   11.2,   0.00,   0.00, 1015.9,    0.4, -999.0
13-09-2023, 00:21:40,      0,    0.6,   11.2,   0.00,   0.00, 1015.9,    0.2, -999.0
13-09-2023, 00:21:50,      0,    0.9,   11.2,   0.00,   0.00, 1015.9,    0.3, -999.0
13-09-2023, 00:22:00,      0,    0.2,   11.3,   0.00,   0.00, 1015.9,    0.3, -999.0
13-09-2023, 00:22:10,      0,    0.0,   11.2,   0.00,   0.00, 1015.8,    0.2, -999.0
13-09-2023, 00:22:20,      0,    0.0,   11.2,   0.00,   0.00, 1015.7,    0.2, -999.0
13-09-2023, 00:22:30,      0,    0.2,   11.2,   0.00,   0.00, 1015.8,    0.1, -999.0
13-09-2023, 00:22:40,      0,    0.1,   11.2,   0.00,   0.00, 1015.8,    0.1, -999.0
13-09-2023, 00:22:50,      0,    0.0,   11.2,   0.00,   0.00, 1015.7,    0.2, -999.0
13-09-2023, 00:23:00,      0,    0.0,   11.2,   0.00,   0.00, 1015.8,    0.3, -999.0
13-09-2023, 00:23:10,      0,    0.0,   11.2,   0.00,   0.00, 1015.7,    0.2, -999.0
13-09-2023, 00:23:20,      0,    0.0,   11.2,   0.00,   0.00, 1015.8,    0.1, -999.0
13-09-2023, 00:23:30,      0,    0.0,   11.2,   0.00,   0.00, 1015.8,    0.2, -999.0
13-09-2023, 00:23:40,      0,    0.0,   11.2,   0.00,   0.00, 1015.8,    0.3, -999.0
13-09-2023, 00:23:50,      0,    0.0,   11.0,   0.00,   0.00, 1015.7,    0.1, -999.0
13-09-2023, 00:24:00,      0,    0.0,   11.2,   0.00,   0.00, 1015.8,    0.3, -999.0
13-09-2023, 00:24:10,      0,    0.0,   11.1,   0.00,   0.00, 1015.8,    0.1, -999.0
13-09-2023, 00:24:20,      0,    0.0,   11.2,   0.00,   0.00, 1015.8,    0.3, -999.0
13-09-2023, 00:24:30,      0,    0.0,   11.2,   0.00,   0.00, 1015.7,    0.1, -999.0
13-09-2023, 00:24:39,      0,    0.0,   11.2,   0.00,   0.00, 1015.8,    0.2, -999.0
13-09-2023, 00:24:50,      0,    0.1,   11.1,   0.00,   0.00, 1015.9,    0.3, -999.0
13-09-2023, 00:25:00,      0,    0.5,   11.2,   0.00,   0.00, 1015.9,    0.2, -999.0
13-09-2023, 00:25:10,      0,    0.0,   11.2,   0.00,   0.00, 1015.8,    0.2, -999.0
13-09-2023, 00:25:19,      0,    0.0,   11.2,   0.00,   0.00, 1015.8,    0.1, -999.0
13-09-2023, 00:25:30,      0,    0.1,   11.2,   0.00,   0.00, 1015.9,    0.2, -999.0
13-09-2023, 00:25:40,      0,    0.1,   11.3,   0.00,   0.00, 1015.9,    0.2, -999.0
13-09-2023, 00:25:49,      0,    0.0,   11.2,   0.00,   0.00, 1015.8,    0.1, -999.0
13-09-2023, 00:26:00,      0,    0.1,   11.1,   0.00,   0.00, 1015.9,    0.1, -999.0
13-09-2023, 00:26:10,      0,    0.0,   11.2,   0.00,   0.00, 1015.9,    0.3, -999.0
13-09-2023, 00:26:19,      0,    0.0,   11.2,   0.00,   0.00, 1015.8,    0.0, -999.0
13-09-2023, 00:26:29,      0,    0.1,   11.3,   0.00,   0.00, 1015.9,    0.2, -999.0
13-09-2023, 00:26:40,     14,    0.1,   11.3,   0.00,   0.00, 1015.8,    0.3, -999.0
13-09-2023, 00:26:49,      0,    0.0,   11.3,   0.00,   0.00, 1015.8,    0.2, -999.0
13-09-2023, 00:26:59,      0,    0.0,   11.2,   0.00,   0.00, 1015.8,    0.2, -999.0
13-09-2023, 00:27:09,      4,    0.0,   11.3,   0.00,   0.00, 1015.8,    0.1, -999.0
13-09-2023, 00:27:19,    351,    0.5,   11.3,   0.00,   0.00, 1015.9,    0.3, -999.0
13-09-2023, 00:27:29,    351,    0.0,   11.3,   0.00,   0.00, 1015.9,    0.3, -999.0
13-09-2023, 00:27:39,    352,    0.0,   11.3,   0.00,   0.00, 1015.8,    0.1, -999.0
13-09-2023, 00:27:49,    335,    0.5,   11.3,   0.00,   0.00, 1016.0,    0.2, -999.0
13-09-2023, 00:27:59,    347,    0.0,   11.3,   0.00,   0.00, 1015.9,    0.1, -999.0
13-09-2023, 00:28:09,    346,    0.0,   11.2,   0.00,   0.00, 1015.8,    0.1, -999.0
13-09-2023, 00:28:19,    347,    0.0,   11.2,   0.00,   0.00, 1015.8,    0.2, -999.0
13-09-2023, 00:28:29,    347,    0.0,   11.2,   0.00,   0.00, 1015.8,    0.2, -999.0
13-09-2023, 00:28:39,    348,    0.0,   11.2,   0.00,   0.00, 1015.8,    0.1, -999.0
13-09-2023, 00:28:49,    348,    0.0,   11.2,   0.00,   0.00, 1015.8,    0.1, -999.0
13-09-2023, 00:28:59,    292,    0.0,   11.3,   0.00,   0.00, 1015.8,    0.2, -999.0
13-09-2023, 00:29:09,    350,    1.0,   11.3,   0.00,   0.00, 1016.0,    0.3, -999.0
13-09-2023, 00:29:19,      0,    0.6,   11.3,   0.00,   0.00, 1016.0,    0.2, -999.0
13-09-2023, 00:29:29,    353,    0.5,   11.3,   0.00,   0.00, 1016.0,    0.4, -999.0
13-09-2023, 00:29:39,    330,    0.6,   11.3,   0.00,   0.00, 1016.0,    0.2, -999.0
13-09-2023, 00:29:49,    335,    0.5,   11.2,   0.00,   0.00, 1016.0,    0.2, -999.0
13-09-2023, 00:29:59,    335,    0.0,   11.2,   0.00,   0.00, 1015.9,    0.3, -999.0
13-09-2023, 00:30:09,    337,    0.0,   11.1,   0.00,   0.00, 1015.8,    0.1, -999.0
13-09-2023, 00:30:19,    341,    0.7,   11.2,   0.00,   0.00, 1016.0,    0.3, -999.0
13-09-2023, 00:30:29,     14,    0.6,   11.3,   0.00,   0.00, 1015.9,    0.2, -999.0
13-09-2023, 00:30:39,     13,    0.3,   11.2,   0.00,   0.00, 1016.0,    0.2, -999.0
13-09-2023, 00:30:49,      0,    1.1,   11.2,   0.00,   0.00, 1016.0,    0.2, -999.0
13-09-2023, 00:30:59,     26,    2.2,   11.3,   0.00,   0.00, 1016.0,    0.2, -999.0
13-09-2023, 00:31:09,     25,    0.8,   11.3,   0.00,   0.00, 1016.0,    0.2, -999.0
13-09-2023, 00:31:19,     23,    0.8,   11.2,   0.00,   0.00, 1016.0,    0.3, -999.0
13-09-2023, 00:31:29,    358,    1.0,   11.3,   0.00,   0.00, 1016.0,    0.3, -999.0
13-09-2023, 00:31:38,      0,    0.6,   11.4,   0.00,   0.00, 1016.0,    0.3, -999.0
13-09-2023, 00:31:49,      0,    0.0,   11.2,   0.00,   0.00, 1015.8,    0.0, -999.0
13-09-2023, 00:31:59,      0,    0.0,   11.2,   0.00,   0.00, 1015.8,    0.1, -999.0
13-09-2023, 00:32:08,      0,    0.0,   11.2,   0.00,   0.00, 1015.9,    0.2, -999.0
13-09-2023, 00:32:18,      0,    0.0,   11.2,   0.00,   0.00, 1015.9,    0.2, -999.0
13-09-2023, 00:32:29,      0,    0.0,   11.2,   0.00,   0.00, 1015.9,    0.2, -999.0
13-09-2023, 00:32:38,      0,    0.1,   11.2,   0.00,   0.00, 1015.9,    0.1, -999.0
13-09-2023, 00:32:48,     29,    0.8,   11.2,   0.00,   0.00, 1016.0,    0.4, -999.0
13-09-2023, 00:32:58,     28,    0.7,   11.3,   0.00,   0.00, 1016.0,    0.2, -999.0
13-09-2023, 00:33:08,     28,    0.0,   11.3,   0.00,   0.00, 1015.9,    0.2, -999.0
13-09-2023, 00:33:18,     28,    0.0,   11.2,   0.00,   0.00, 1015.9,    0.1, -999.0
13-09-2023, 00:33:28,     28,    0.0,   11.2,   0.00,   0.00, 1015.9,    0.2, -999.0
13-09-2023, 00:33:38,     21,    0.0,   11.2,   0.00,   0.00, 1015.9,    0.1, -999.0
13-09-2023, 00:33:48,    323,    0.5,   11.3,   0.00,   0.00, 1016.0,    0.1, -999.0
13-09-2023, 00:33:58,    323,    0.1,   11.3,   0.00,   0.00, 1015.9,    0.2, -999.0
13-09-2023, 00:34:08,    323,    0.0,   11.3,   0.00,   0.00, 1015.9,    0.2, -999.0
13-09-2023, 00:34:18,    323,    0.0,   11.3,   0.00,   0.00, 1015.9,    0.1, -999.0
13-09-2023, 00:34:28,    339,    0.0,   11.2,   0.00,   0.00, 1015.9,    0.3, -999.0
13-09-2023, 00:34:38,     35,    0.7,   11.4,   0.00,   0.00, 1016.0,    0.2, -999.0
13-09-2023, 00:34:48,     58,    1.5,   11.4,   0.00,   0.00, 1016.0,    0.1, -999.0
13-09-2023, 00:34:58,     47,    1.5,   11.4,   0.00,   0.00, 1016.0,    0.3, -999.0
13-09-2023, 00:35:08,     47,    0.3,   11.3,   0.00,   0.00, 1016.0,    0.2, -999.0
13-09-2023, 00:35:18,     47,    0.0,   11.3,   0.00,   0.00, 1015.9,    0.0, -999.0
13-09-2023, 00:35:28,     46,    0.0,   11.3,   0.00,   0.00, 1015.9,    0.1, -999.0
13-09-2023, 00:35:38,     47,    0.0,   11.3,   0.00,   0.00, 1015.9,    0.3, -999.0
13-09-2023, 00:35:48,     47,    0.1,   11.3,   0.00,   0.00, 1015.9,    0.3, -999.0
13-09-2023, 00:35:58,     40,    0.6,   11.3,   0.00,   0.00, 1016.0,    0.2, -999.0
13-09-2023, 00:36:08,     40,    0.0,   11.2,   0.00,   0.00, 1015.9,    0.2, -999.0
13-09-2023, 00:36:18,     39,    0.0,   11.2,   0.00,   0.00, 1015.9,    0.1, -999.0
13-09-2023, 00:36:28,     40,    0.1,   11.2,   0.00,   0.00, 1016.0,    0.1, -999.0
13-09-2023, 00:36:38,     40,    0.2,   11.3,   0.00,   0.00, 1016.0,    0.3, -999.0
13-09-2023, 00:36:48,    301,    0.3,   11.3,   0.00,   0.00, 1016.0,    0.5, -999.0
13-09-2023, 00:36:58,    301,    0.0,   11.3,   0.00,   0.00, 1015.9,    0.2, -999.0
13-09-2023, 00:37:08,    302,    0.0,   11.2,   0.00,   0.00, 1016.0,    0.1, -999.0
13-09-2023, 00:37:18,    303,    0.0,   11.2,   0.00,   0.00, 1015.9,    0.1, -999.0
13-09-2023, 00:37:27,    303,    0.2,   11.3,   0.00,   0.00, 1016.0,    0.1, -999.0
13-09-2023, 00:37:38,    304,    0.0,   11.2,   0.00,   0.00, 1015.9,    0.1, -999.0
13-09-2023, 00:37:48,    303,    0.0,   11.2,   0.00,   0.00, 1015.9,    0.2, -999.0
13-09-2023, 00:37:57,    304,    0.0,   11.2,   0.00,   0.00, 1015.9,    0.1, -999.0
13-09-2023, 00:38:08,    303,    0.0,   11.2,   0.00,   0.00, 1015.9,    0.0, -999.0
13-09-2023, 00:38:18,    303,    0.0,   11.2,   0.00,   0.00, 1015.9,    0.3, -999.0
13-09-2023, 00:38:27,    303,    0.0,   11.3,   0.00,   0.00, 1015.9,    0.2, -999.0
13-09-2023, 00:38:37,    306,    0.1,   11.3,   0.00,   0.00, 1016.0,    0.0, -999.0
13-09-2023, 00:38:48,    324,    0.7,   11.3,   0.00,   0.00, 1016.0,    0.2, -999.0
13-09-2023, 00:38:58,    327,    0.5,   11.4,   0.00,   0.00, 1016.1,    0.2, -999.0
13-09-2023, 00:39:07,      0,    0.4,   11.3,   0.00,   0.00, 1016.0,    0.1, -999.0
13-09-2023, 00:39:17,    358,    0.9,   11.4,   0.00,   0.00, 1016.0,    0.4, -999.0
13-09-2023, 00:39:28,      0,    1.3,   11.3,   0.00,   0.00, 1016.0,    0.2, -999.0
13-09-2023, 00:39:37,     13,    0.5,   11.3,   0.00,   0.00, 1016.0,    0.3, -999.0
13-09-2023, 00:39:47,      0,    0.4,   11.3,   0.00,   0.00, 1016.0,    0.1, -999.0
13-09-2023, 00:39:57,      3,    0.1,   11.3,   0.00,   0.00, 1016.0,    0.2, -999.0
13-09-2023, 00:40:07,      3,    0.5,   11.4,   0.00,   0.00, 1016.0,    0.2, -999.0
13-09-2023, 00:40:17,      3,    0.0,   11.3,   0.00,   0.00, 1016.0,    0.2, -999.0
13-09-2023, 00:40:27,      3,    0.0,   11.3,   0.00,   0.00, 1015.9,    0.2, -999.0
13-09-2023, 00:40:37,      3,    0.0,   11.2,   0.00,   0.00, 1016.0,    0.1, -999.0
13-09-2023, 00:40:47,      2,    0.0,   11.3,   0.00,   0.00, 1016.0,    0.1, -999.0
13-09-2023, 00:40:57,      2,    0.0,   11.2,   0.00,   0.00, 1016.0,    0.2, -999.0
13-09-2023, 00:41:07,      2,    0.0,   11.2,   0.00,   0.00, 1016.0,    0.1, -999.0
13-09-2023, 00:41:17,      2,    0.0,   11.3,   0.00,   0.00, 1015.9,    0.2, -999.0
13-09-2023, 00:41:27,      2,    0.2,   11.3,   0.00,   0.00, 1016.0,    0.2, -999.0
13-09-2023, 00:41:37,      2,    0.0,   11.3,   0.00,   0.00, 1016.0,    0.0, -999.0
13-09-2023, 00:41:47,      0,    0.1,   11.3,   0.00,   0.00, 1016.0,    0.3, -999.0
13-09-2023, 00:41:57,      0,    0.0,   11.3,   0.00,   0.00, 1015.9,    0.1, -999.0
13-09-2023, 00:42:07,      0,    0.0,   11.3,   0.00,   0.00, 1016.0,    0.0, -999.0
13-09-2023, 00:42:17,      0,    0.3,   11.3,   0.00,   0.00, 1016.0,    0.3, -999.0
13-09-2023, 00:42:27,      0,    0.0,   11.3,   0.00,   0.00, 1016.0,    0.1, -999.0
13-09-2023, 00:42:37,      2,    0.7,   11.3,   0.00,   0.00, 1016.1,    0.2, -999.0
13-09-2023, 00:42:47,      5,    1.0,   11.4,   0.00,   0.00, 1016.1,    0.2, -999.0
13-09-2023, 00:42:57,      5,    0.3,   11.3,   0.00,   0.00, 1016.0,    0.2, -999.0
13-09-2023, 00:43:07,      5,    0.1,   11.4,   0.00,   0.00, 1016.0,    0.3, -999.0
13-09-2023, 00:43:17,      5,    0.0,   11.3,   0.00,   0.00, 1016.0,    0.2, -999.0
13-09-2023, 00:43:27,      5,    0.0,   11.3,   0.00,   0.00, 1016.0,    0.1, -999.0
13-09-2023, 00:43:37,      5,    0.0,   11.2,   0.00,   0.00, 1016.0,    0.2, -999.0
13-09-2023, 00:43:47,      5,    0.0,   11.3,   0.00,   0.00, 1016.0,    0.1, -999.0
13-09-2023, 00:43:57,      5,    0.0,   11.3,   0.00,   0.00, 1015.9,    0.2, -999.0
13-09-2023, 00:44:07,      4,    0.0,   11.3,   0.00,   0.00, 1016.0,    0.2, -999.0
13-09-2023, 00:44:16,      0,    1.8,   11.4,   0.00,   0.00, 1016.1,    0.2, -999.0
13-09-2023, 00:44:27,    318,    1.9,   11.4,   0.00,   0.00, 1016.1,    0.2, -999.0
13-09-2023, 00:44:37,    317,    0.1,   11.3,   0.00,   0.00, 1016.0,    0.2, -999.0
13-09-2023, 00:44:46,    317,    0.0,   11.3,   0.00,   0.00, 1016.0,    0.2, -999.0
13-09-2023, 00:44:56,    327,    0.2,   11.3,   0.00,   0.00, 1016.0,    0.2, -999.0
13-09-2023, 00:45:07,    328,    0.6,   11.4,   0.00,   0.00, 1016.1,    0.2, -999.0
13-09-2023, 00:45:17,    331,    0.3,   11.3,   0.00,   0.00, 1015.9,    0.2, -999.0
13-09-2023, 00:45:26,    331,    1.1,   11.3,   0.00,   0.00, 1016.1,    0.1, -999.0
13-09-2023, 00:45:36,    308,    0.8,   11.4,   0.00,   0.00, 1016.1,    0.1, -999.0
13-09-2023, 00:45:47,    312,    0.1,   11.3,   0.00,   0.00, 1016.0,    0.2, -999.0
13-09-2023, 00:45:56,    313,    0.2,   11.3,   0.00,   0.00, 1016.0,    0.3, -999.0
13-09-2023, 00:46:06,    312,    0.0,   11.2,   0.00,   0.00, 1015.9,    0.0, -999.0
13-09-2023, 00:46:16,    313,    0.0,   11.3,   0.00,   0.00, 1015.9,    0.1, -999.0
13-09-2023, 00:46:26,    313,    0.0,   11.3,   0.00,   0.00, 1015.9,    0.1, -999.0
13-09-2023, 00:46:36,    313,    0.0,   11.3,   0.00,   0.00, 1015.9,    0.1, -999.0
13-09-2023, 00:46:46,    313,    0.0,   11.3,   0.00,   0.00, 1016.0,    0.1, -999.0